Wind_Speed
14 14 13 11 9 8 7 6 4 3 4 5 6 8 12 13 10 7 8 8 10 7 8 7 6 8 10 9 9 11 10 11 13 14 16 18 18 21 21 22 21 19 19
11 11 9 9 8 6 4 4 5 4 3 3 9 14 13 13 13 10 8 9 10 11 9 7 11 12 11 11 11 13 13 13 15 16 18 19 20 20 21 22 23 21 21
10 8 9 9 9 6 6 6 6 8 3 6 8 11 11 12 14 13 16 15 10 12 11 11 13 16 13 14 16 14 16 17 19 20 22 21 21 22 21 21 23 23 23
10 10 11 9 8 6 5 6 6 6 7 7 10 12 11 12 14 15 16 13 14 8 9 12 12 14 20 12 14 16 18 20 23 23 27 13 22 21 21 21 22 25 26
14 9 10 8 6 3 6 10 10 8 8 9 10 9 11 11 12 13 11 11 11 13 12 12 10 11 14 14 12 14 15 20 18 20 10 9 14 19 20 22 24 26 26
13 10 8 11 5 7 7 8 8 8 8 7 8 10 9 8 9 11 9 8 11 8 10 10 10 8 8 10 14 12 11 18 18 20 14 11 14 18 20 19 22 26 27
9 9 8 8 9 9 8 8 8 6 6 7 9 10 7 8 10 11 12 11 9 11 13 13 10 4 5 6 9 11 13 10 15 18 16 14 15 20 24 16 20 22 25
7 7 11 9 8 9 10 9 9 6 8 10 10 11 10 9 9 11 11 12 13 14 13 13 12 9 7 5 8 11 12 13 15 16 17 17 15 18 18 23 24 21 20
9 9 8 8 8 6 7 10 10 8 10 13 12 11 10 10 10 11 13 15 16 16 17 17 12 7 8 9 8 11 9 14 15 13 13 13 16 13 18 20 16 18 22
7 9 9 7 6 6 8 10 12 12 12 13 14 13 14 14 13 11 13 15 17 20 20 19 13 13 6 5 7 4 7 8 8 12 14 10 12 13 16 18 18 22 23
8 5 4 6 7 9 10 11 12 15 16 15 15 14 16 18 19 20 16 13 13 18 18 14 12 10 6 7 6 5 7 8 10 7 8 9 10 12 15 18 18 20 21
2 5 6 5 7 11 13 10 15 17 16 14 13 14 17 19 20 22 20 18 15 15 15 11 10 11 11 12 10 9 13 11 11 11 11 14 15 16 17 19 20 19 18
3 6 9 5 10 9 11 12 16 17 17 15 16 18 19 19 19 20 19 16 13 15 14 12 12 13 10 10 11 13 13 17 15 15 16 18 19 19 19 18 18 19 21
6 5 7 6 9 10 12 13 16 19 19 18 18 18 17 16 16 17 14 11 9 12 13 15 16 15 15 14 16 15 17 17 17 19 18 19 19 20 20 20 20 20 21
6 7 9 12 12 14 15 17 20 20 17 15 13 12 11 13 12 12 10 9 9 9 11 13 16 18 18 20 21 22 22 18 18 20 20 21 22 21 20 21 21 21 22
9 12 16 15 13 13 13 12 11 9 9 9 9 10 11 10 11 11 12 11 11 10 12 16 19 20 21 23 24 24 24 23 24 23 23 25 22 19 20 22 24 25 23
10 14 13 12 13 11 10 9 9 8 8 9 9 10 10 11 13 14 15 16 16 16 17 19 19 21 22 23 24 24 25 27 27 24 22 22 20 20 21 21 21 24 26
12 12 11 10 10 9 8 8 8 8 8 7 8 9 11 13 15 16 18 18 19 19 20 20 19 19 21 22 23 24 26 26 30 27 26 24 22 19 20 22 24 26 26
9 9 7 6 5 6 6 6 7 7 8 9 10 11 12 13 14 15 16 17 17 17 17 17 17 17 17 18 19 22 23 23 24 26 29 26 25 25 26 28 30 30 29
8 6 5 4 4 5 5 5 6 6 7 8 10 11 12 13 15 16 18 18 17 16 16 15 16 16 17 17 17 17 18 19 18 22 21 20 21 23 26 28 27 27 30
6 5 4 4 4 4 4 5 6 7 8 9 10 12 14 14 15 16 15 15 14 14 15 15 17 18 19 19 19 20 21 21 20 21 21 22 22 22 22 24 27 29 31
5 3 3 3 4 5 6 6 7 8 9 11 12 12 13 14 14 14 13 13 14 14 15 16 17 18 19 20 21 21 21 21 19 20 20 20 21 22 21 22 24 26 28
3 3 3 4 4 4 5 6 7 8 10 11 12 13 14 14 14 13 12 13 14 15 16 17 18 19 19 20 22 23 24 23 23 23 23 22 22 22 22 23 21 22 23
2 2 1 1 2 3 5 7 8 9 10 10 11 13 14 14 13 14 14 13 14 15 17 19 20 21 21 21 22 23 23 23 23 23 23 21 22 25 24 24 26 27 26
1 0 1 1 2 4 6 8 9 10 10 10 12 13 14 14 12 11 11 13 15 17 19 20 20 19 20 21 21 22 22 21 21 23 24 24 21 19 19 19 23 28 31
2 2 3 3 4 5 7 8 9 10 11 12 13 14 13 12 11 13 14 14 16 16 17 18 19 19 20 21 23 23 22 23 25 25 24 23 24 23 19 17 19 22 23
Wind_Direction
177 181 182 185 185 182 186 211 239 267 309 324 322 311 308 313 296 262 266 295 305 283 290 293 285 283 271 260 260 260 258 260 263 252 245 243 236 232 231 232 229 220 224
188 197 200 203 213 203 235 259 272 282 305 329 330 318 309 305 314 315 308 296 301 281 283 301 282 271 287 289 274 259 256 257 260 257 243 238 238 238 236 238 234 229 224
192 206 221 224 229 227 240 261 290 281 243 276 316 304 297 292 291 303 304 299 305 284 277 295 295 268 260 283 273 264 264 270 266 255 254 230 227 234 235 237 237 236 229
200 221 231 238 240 236 247 272 304 317 315 288 293 301 304 282 293 298 306 288 302 276 288 284 271 268 261 295 268 274 267 267 264 270 270 257 231 227 235 236 237 236 233
200 221 223 232 243 303 293 296 302 305 303 300 293 307 324 313 299 299 306 300 291 292 302 327 298 291 278 241 292 279 304 264 255 272 289 261 226 231 230 234 239 241 243
223 217 212 220 275 277 292 286 285 297 294 336 323 323 347 2 354 345 314 291 302 318 291 302 316 291 294 261 267 282 286 280 258 279 252 246 254 251 239 234 241 243 246
216 215 223 243 267 274 270 269 273 280 306 329 330 319 330 334 331 333 323 320 315 322 307 300 309 313 306 321 275 274 290 299 286 292 275 253 264 265 253 237 241 241 243
219 224 243 252 248 260 269 265 266 276 303 308 318 308 318 317 301 316 325 321 316 313 308 301 307 296 294 311 316 290 280 290 292 275 269 253 262 279 277 271 255 247 242
233 240 245 253 264 268 275 269 268 284 291 303 312 308 313 294 291 290 302 306 307 304 303 307 305 289 287 301 300 296 283 289 274 258 256 251 263 276 273 267 271 263 260
221 234 238 242 263 278 287 289 297 296 296 303 305 305 305 305 299 299 290 293 293 299 301 299 289 279 306 334 341 313 270 321 285 283 264 269 279 275 276 271 278 269 262
194 199 234 253 280 285 287 289 296 297 304 306 305 303 301 304 305 312 318 307 294 296 303 293 273 278 275 294 326 5 350 321 316 302 266 271 273 279 284 280 273 282 258
46 224 234 262 282 270 275 279 280 291 286 282 296 294 300 303 308 313 315 314 311 302 296 288 269 270 280 278 259 311 329 311 312 295 285 279 277 282 281 277 269 268 263
306 228 244 207 356 346 341 277 270 297 293 297 301 301 303 305 304 305 305 309 310 298 277 283 274 272 278 269 273 293 302 310 311 306 304 293 283 283 284 275 269 265 264
288 262 298 304 302 309 304 294 284 287 288 292 294 295 298 302 309 311 313 314 312 303 281 280 286 279 279 290 293 295 302 305 301 305 304 306 293 280 279 277 263 258 258
263 309 301 285 281 284 288 287 284 285 291 296 300 301 298 301 306 317 325 321 315 302 286 288 278 281 291 290 298 304 308 302 298 296 292 297 299 277 273 277 280 278 272
274 283 281 286 291 300 303 294 289 301 312 313 308 306 306 304 308 309 311 309 303 294 280 273 275 280 283 286 294 301 298 294 295 297 295 292 297 282 275 278 272 272 268
285 283 296 320 318 318 322 325 326 326 321 319 316 311 313 312 311 317 314 312 310 304 292 285 285 283 284 284 283 282 284 287 292 296 293 291 291 283 277 279 277 271 277
305 315 324 328 328 326 331 333 329 322 319 319 329 330 329 327 324 321 320 319 314 312 307 302 300 296 292 289 290 291 290 295 291 288 286 290 289 280 278 282 281 276 281
315 312 317 322 315 315 317 316 326 335 337 338 336 333 328 324 323 324 319 316 316 318 318 318 318 310 304 300 293 288 293 294 288 289 284 282 273 277 279 287 286 281 277
308 305 320 316 317 323 335 332 330 331 330 329 330 328 329 328 330 327 327 327 329 332 335 334 329 326 325 322 318 317 313 310 307 305 310 305 283 279 277 277 276 278 277
307 312 325 333 334 344 350 345 337 333 336 335 335 332 332 329 326 327 330 335 336 336 333 329 327 330 329 326 322 319 314 310 309 308 306 304 299 292 287 284 279 282 280
300 313 321 329 350 358 356 346 342 342 342 340 333 326 321 325 327 325 329 333 335 334 334 334 338 336 331 327 326 321 319 319 314 312 310 306 304 299 296 289 284 280 278
295 324 335 344 334 337 339 342 345 343 340 333 327 324 329 332 330 331 338 343 345 345 341 339 340 340 336 332 331 327 324 321 318 313 307 303 299 296 293 292 288 285 284
323 326 315 305 327 335 344 346 345 345 336 331 336 337 336 339 342 346 347 347 343 339 342 345 344 340 337 334 333 329 330 330 324 319 314 307 302 292 287 282 283 285 286
329 16 124 71 13 344 344 342 336 338 335 339 342 341 344 350 349 345 342 342 346 347 344 340 339 339 338 337 331 330 332 326 323 323 318 316 313 312 313 304 291 284 281
83 62 50 33 3 348 340 334 335 339 339 344 343 346 348 344 341 342 342 342 343 341 339 340 340 339 340 338 335 333 329 325 326 326 325 321 322 319 319 315 319 311 306
Height
3217 3218 3219 3220 3221 3221 3221 3222 3223 3222 3222 3222 3221 3221 3220 3219 3218 3217 3216 3215 3214 3213 3212 3211 3212 3210 3209 3207 3207 3206 3206 3207 3207 3206 3207 3207 3208 3209 3210 3211 3212 3215 3218
3217 3220 3221 3222 3222 3222 3223 3224 3223 3223 3222 3222 3221 3219 3217 3216 3216 3215 3214 3213 3212 3212 3210 3209 3209 3208 3207 3204 3203 3205 3204 3203 3203 3203 3202 3203 3204 3205 3206 3207 3208 3210 3213
3218 3221 3222 3222 3222 3223 3223 3224 3224 3223 3220 3220 3219 3218 3216 3214 3214 3214 3213 3212 3210 3209 3209 3208 3205 3205 3204 3204 3203 3202 3202 3200 3198 3197 3195 3196 3199 3201 3203 3204 3205 3207 3208
3218 3220 3221 3222 3224 3224 3224 3223 3222 3221 3220 3218 3218 3217 3215 3213 3212 3212 3211 3210 3208 3206 3206 3205 3203 3201 3201 3200 3199 3198 3197 3196 3195 3195 3190 3194 3195 3197 3199 3200 3201 3202 3203
3219 3221 3221 3223 3223 3223 3222 3223 3221 3220 3219 3217 3217 3216 3213 3211 3211 3209 3209 3207 3206 3205 3205 3204 3201 3199 3197 3196 3197 3196 3194 3193 3192 3191 3188 3191 3192 3193 3194 3196 3197 3198 3199
3220 3221 3222 3223 3222 3223 3222 3222 3221 3220 3219 3217 3215 3214 3213 3211 3210 3209 3209 3207 3204 3203 3203 3202 3200 3198 3196 3194 3193 3193 3192 3190 3188 3186 3186 3187 3189 3189 3187 3189 3192 3193 3194
3220 3221 3222 3222 3222 3221 3221 3220 3220 3219 3218 3216 3215 3214 3213 3212 3211 3209 3207 3206 3204 3202 3201 3200 3198 3196 3195 3193 3191 3191 3190 3187 3187 3184 3184 3184 3186 3186 3170 3183 3186 3188 3190
3219 3221 3220 3220 3219 3219 3219 3220 3219 3218 3217 3215 3214 3213 3212 3213 3210 3208 3207 3204 3202 3200 3199 3197 3196 3195 3193 3191 3190 3188 3186 3185 3184 3183 3177 3183 3183 3182 3181 3181 3179 3184 3186
3218 3219 3219 3219 3219 3220 3220 3220 3219 3217 3216 3214 3212 3212 3210 3210 3208 3207 3205 3203 3201 3198 3197 3195 3195 3194 3191 3189 3187 3185 3184 3182 3182 3180 3179 3181 3181 3180 3179 3179 3178 3180 3182
3219 3219 3219 3220 3221 3221 3221 3220 3219 3217 3215 3212 3210 3209 3208 3207 3206 3206 3204 3201 3199 3196 3194 3192 3193 3191 3190 3188 3186 3183 3183 3182 3179 3179 3179 3179 3179 3179 3179 3178 3177 3177 3178
3218 3219 3220 3221 3221 3220 3219 3217 3217 3216 3214 3211 3208 3207 3206 3204 3202 3201 3200 3200 3197 3194 3192 3190 3190 3190 3190 3188 3186 3184 3182 3180 3178 3176 3176 3177 3174 3176 3176 3176 3175 3174 3173
3219 3220 3221 3220 3218 3215 3213 3212 3212 3213 3211 3208 3207 3205 3204 3202 3200 3197 3196 3194 3193 3191 3188 3187 3187 3187 3188 3186 3184 3183 3181 3179 3177 3175 3174 3173 3172 3172 3172 3172 3172 3171 3170
3220 3219 3217 3217 3215 3212 3210 3208 3211 3211 3210 3207 3205 3203 3201 3199 3197 3195 3192 3191 3190 3188 3186 3185 3184 3185 3186 3184 3183 3182 3181 3179 3176 3175 3173 3172 3171 3170 3169 3168 3168 3168 3167
3216 3215 3216 3216 3214 3211 3209 3208 3209 3207 3206 3203 3201 3200 3198 3196 3194 3192 3189 3188 3187 3185 3184 3184 3183 3183 3183 3183 3181 3179 3178 3176 3174 3173 3171 3169 3168 3165 3165 3164 3163 3162 3161
3216 3215 3214 3213 3212 3211 3208 3206 3205 3204 3202 3199 3198 3196 3195 3193 3192 3190 3188 3187 3185 3184 3183 3182 3180 3178 3178 3177 3176 3175 3174 3172 3170 3169 3166 3165 3163 3161 3159 3159 3159 3159 3158
3215 3214 3213 3211 3209 3207 3205 3204 3202 3200 3197 3196 3194 3193 3192 3190 3189 3187 3185 3184 3183 3182 3180 3178 3175 3176 3176 3175 3173 3171 3168 3166 3164 3162 3160 3158 3157 3156 3155 3154 3154 3153 3153
3213 3212 3209 3206 3204 3203 3201 3199 3198 3196 3195 3193 3192 3192 3190 3189 3188 3186 3184 3181 3179 3178 3176 3173 3173 3171 3170 3170 3168 3166 3163 3160 3158 3157 3155 3154 3152 3151 3149 3148 3148 3147 3147
3209 3208 3205 3203 3202 3200 3199 3198 3197 3195 3194 3193 3191 3190 3189 3188 3186 3184 3181 3178 3175 3173 3171 3169 3168 3167 3165 3163 3161 3160 3157 3154 3152 3150 3150 3149 3148 3146 3145 3144 3143 3141 3140
3208 3206 3204 3203 3202 3201 3200 3199 3197 3195 3194 3192 3191 3190 3187 3185 3182 3180 3177 3175 3173 3170 3167 3165 3163 3161 3160 3159 3157 3155 3152 3149 3146 3143 3142 3141 3140 3140 3139 3137 3136 3135 3134
3206 3205 3203 3203 3201 3200 3199 3197 3196 3196 3194 3193 3190 3188 3185 3182 3180 3178 3177 3174 3171 3168 3166 3163 3161 3159 3157 3155 3152 3150 3147 3144 3140 3138 3136 3134 3133 3132 3131 3130 3127 3126 3125
3204 3203 3202 3201 3200 3199 3198 3198 3197 3195 3194 3192 3189 3186 3183 3181 3179 3176 3173 3172 3170 3167 3165 3163 3161 3158 3154 3152 3149 3146 3144 3140 3138 3136 3133 3130 3128 3125 3124 3122 3120 3118 3116
3202 3201 3202 3201 3199 3199 3198 3197 3196 3194 3192 3189 3187 3184 3182 3181 3178 3176 3174 3171 3169 3167 3165 3162 3160 3156 3153 3149 3146 3143 3140 3138 3135 3133 3129 3127 3124 3121 3118 3116 3114 3112 3110
3201 3201 3200 3200 3199 3199 3197 3196 3194 3192 3190 3189 3187 3185 3183 3180 3178 3175 3173 3171 3168 3166 3163 3158 3155 3153 3150 3146 3143 3140 3135 3133 3130 3128 3125 3122 3120 3117 3115 3111 3109 3107 3105
3202 3201 3200 3200 3200 3199 3197 3195 3193 3191 3189 3187 3186 3184 3181 3179 3177 3175 3173 3169 3166 3162 3159 3157 3154 3150 3147 3144 3140 3137 3133 3129 3126 3122 3119 3117 3115 3112 3110 3107 3105 3102 3100
3203 3202 3201 3199 3198 3197 3196 3194 3192 3190 3188 3186 3184 3182 3180 3178 3176 3173 3170 3167 3164 3160 3157 3155 3152 3148 3145 3142 3138 3134 3131 3127 3123 3119 3114 3111 3108 3106 3104 3101 3098 3095 3093
3203 3202 3200 3198 3197 3196 3195 3194 3192 3190 3187 3185 3183 3181 3179 3177 3173 3170 3167 3164 3162 3159 3156 3153 3149 3146 3143 3137 3133 3129 3125 3121 3117 3115 3111 3108 3104 3100 3099 3096 3092 3089 3086